www.pogodaiklimat.ru

Погода и климат >> Архив погоды >> Коморские Острова >> Dzaoudzi


ПОГОДА в Dzaoudzi

  • Прогноз погоды в Dzaoudzi
  • Монитор погоды в Dzaoudzi
  • Климат города

АРХИВ ПОГОДЫ в Dzaoudzi

Время (UTC), дата Ветер
(напр.,м/с)
 
Видим.   Явления Облачность Т
(С)
Тd
(С)
f
(%)
Тe
(С)
Тes
(С)
Комфортность P
(гПа)
Po
(гПа)
Тmin
(С)
Tmax
(С)
R
(мм)
S
(см)
00 19.03 В 5
{7}
20 км н/о +28.1 +23.9 78 +39 +39 очень
душно
1012.3 1012.0 0.2
03 19.03 СВ 4
{8}
20 км 6/5 660 м
[Cu Sc Ci fib]
+28.3 +24.1 78 +39 +39 очень
душно
1012.5 1013.0
06 19.03 В 6 20 км {ливн. осадки} 6/4 600 м
[Cb cap Ci fib]
+29.7 +24.1 72 +41 +43 опасность
перегрева
1014.6 1015.0 +26.9 2
09 19.03 СВ 5
{10}
20 км 6/3 660 м
[Cu Sc Ci sp]
+30.8 +24.7 70 +44 +51 опасность
перегрева
1014.0 1014.0
12 19.03 СВ 4
{12}
6000 м в посл. час дождь {ливн. осадки} 9/6 600 м
[Cb calv Ac As]
+27.2 +24.1 83 +38 +39 очень
душно
1012.8 1013.0 5
15 19.03 В 3
{6}
6000 м {ливн. осадки} 9/4 660 м
[Cb calv Ac As Ci ing]
+28.0 +24.2 80 +39 +39 очень
душно
1012.6 1013.0
18 19.03 В 5
{8}
20 км н/о +28.2 +24.4 80 +40 +40 очень
душно
1013.5 1014.0 +31.7 5
21 19.03 СВ 4
{8}
20 км н/о +28.2 +23.8 77 +39 +39 очень
душно
1013.2 1013.0
00 20.03 СВ 5
{8}
20 км н/о +27.5 +23.3 78 +37 +37 очень
душно
1011.8 1012.0
03 20.03 В 5
{8}
8000 м осадки на расстоянии {ливн. осадки} 9/8 480 м
[Cu Sc Ac As]
+27.3 +24.6 85 +39 +39 очень
душно
1012.7 1013.0 0.2
06 20.03 СВ 3 20 км {ливн. осадки} 9/5 960 м
[Cu Sc Ac As]
+30.2 +24.4 71 +42 +44 опасность
перегрева
1013.9 1014.0 +25.7 7
09 20.03 ЮЗ 2
{4}
20 км в посл. час ливневой дождь 8/4 240 м
[Cu Sc Ac As Ci sp]
+27.9 +24.7 83 +40 +49 очень
душно
1012.8 1013.0 0.8
12 20.03 Ю 2
{4}
20 км {ливн. осадки} 8/4 700 м
[Cu Sc Ac As Ci sp]
+30.8 +23.7 66 +42 +46 опасность
перегрева
1010.9 1011.0 0.8
15 20.03 Ю 1
{3}
20 км {ливн. осадки} 6/3 700 м
[Cu Sc Ac As Ci sp]
+29.0 +23.0 70 +39 +39 очень
душно
1011.6 1012.0
18 20.03 ЮЗ 2
{4}
20 км н/о +27.5 +24.4 83 +39 +39 очень
душно
1013.8 1014.0 +30.9 0.8
21 20.03 З 1
{2}
20 км н/о +26.1 +23.8 87 +36 +36 очень
душно
1013.1 1013.0
00 21.03 З 2
{3}
20 км н/о +25.6 +23.8 90 +35 +35 очень
душно
1011.9 1012.0
03 21.03 З 3
{5}
20 км 8/3 600 м
[Cu Sc Ac trans Ci sp]
+26.8 +23.9 84 +37 +37 очень
душно
1012.5 1013.0
06 21.03 СЗ 3 20 км 8/4 600 м
[Cu Sc Ac trans Ci sp]
+27.9 +24.1 80 +39 +43 очень
душно
1014.4 1014.0 +25.3 0.8
09 21.03 СЗ 3
{4}
20 км 9/4 930 м
[Cu Sc Ac As]
+30.6 +22.5 62 +40 +45 очень
душно
1012.8 1013.0
12 21.03 Ю 2
{6}
20 км 6/3 700 м
[Cu Sc Ac trans Ci sp]
+30.5 +23.7 67 +42 +48 опасность
перегрева
1010.6 1011.0
15 21.03 З 3
{4}
20 км 4/1 700 м
[Cu Sc Ac trans Ci sp]
+29.1 +23.8 73 +40 +40 очень
душно
1011.2 1011.0
18 21.03 З 2
{3}
20 км н/о +27.4 +24.1 82 +38 +38 очень
душно
1012.6 1013.0 +31.3
21 21.03 С 2
{3}
20 км н/о +26.2 +24.1 88 +36 +36 очень
душно
1012.4 1012.0
00 22.03 СЗ 2
{5}
7000 м слабый дождь 10/10 300 м
[]
+26.1 +24.3 90 +36 +36 очень
душно
1011.6 1012.0 0.4
03 22.03 З 2
{4}
20 км гроза без осадков 8/5 600 м
[Cb cap Ac trans Ci sp]
+25.8 +24.4 92 +36 +36 очень
душно
1012.4 1012.0 6
06 22.03 СЗ 1 20 км в посл. час ливневой дождь {гроза} 9/4 480 м
[Cb cap Ac trans Cs]
+26.7 +24.4 87 +37 +42 очень
душно
1014.1 1014.0 +25.3 8
09 22.03 В 2
{4}
20 км 6/3 700 м
[Cu Sc Ac trans Ci sp]
+30.2 +24.1 70 +42 +53 опасность
перегрева
1012.2 1012.0
12 22.03 В 2
{5}
20 км 5/3 750 м
[Cu Sc Ac trans Ci sp]
+30.6 +23.5 66 +41 +48 опасность
перегрева
1010.1 1010.0
15 22.03 Ю 1
{3}
20 км 5/4 660 м
[Cb cap Ac trans Ci sp]
+29.1 +22.8 69 +39 +39 очень
душно
1011.2 1011.0
18 22.03 СЗ 3
{7}
20 км н/о +27.3 +24.2 83 +38 +38 очень
душно
1012.8 1013.0 +31.3
21 22.03 СЗ 2
{4}
20 км н/о +26.9 +24.7 88 +38 +38 очень
душно
1013.0 1013.0
00 23.03 С 2
{3}
20 км н/о +26.1 +23.2 84 +35 +35 очень
душно
1011.0 1011.0
03 23.03 СЗ 2
{3}
15 км гроза без осадков {ливн. осадки} 8/6 600 м
[Cb cap Ci ing]
+25.8 +23.5 87 +35 +35 очень
душно
1012.0 1012.0 0.6
06 23.03 СЗ 4 20 км {гроза, ливн. осадки} 5/4 660 м
[Cu Sc Ac trans Ci ing]
+29.4 +24.1 73 +41 +45 опасность
перегрева
1013.5 1014.0 +25.4 0.6
09 23.03 СЗ 3
{6}
20 км 8/6 660 м
[Cb cap Ci sp]
+31.1 +24.2 67 +43 +50 опасность
перегрева
1012.3 1012.0 0.2
12 23.03 ЮВ 2
{11}
1200 м гроза, ливневой дождь 9/6 480 м
[Cb cap Cs]
+24.6 +22.8 90 +33 +36 очень
душно
1011.3 1011.0 46
15 23.03 С 1
{3}
20 км {гроза, ливн. осадки} 9/4 630 м
[Cu Sc Ac trans Cs]
+25.6 +23.8 90 +35 +35 очень
душно
1011.3 1011.0 6
18 23.03 ЮЗ 1
{2}
20 км 9/0
[]
+25.4 +23.8 91 +35 +35 очень
душно
1013.1 1013.0 +31.8 52
21 23.03 С 2
{2}
20 км н/о +25.1 +23.5 91 +34 +34 очень
душно
1012.8 1013.0
00 24.03 СЗ 2
{2}
20 км н/о +24.7 +23.3 92 +33 +33 очень
душно
1010.9 1011.0
03 24.03 С 1
{3}
20 км 8/3 630 м
[Cu Sc Ci]
+24.7 +23.5 93 +33 +33 очень
душно
1011.6 1012.0
06 24.03 С 3 20 км 6/4 660 м
[Cu Sc Ci]
+30.0 +24.2 71 +42 +47 опасность
перегрева
1013.7 1014.0 +24.6 52
09 24.03 С 4
{8}
20 км 6/4 660 м
[Cu Sc Ci]
+30.7 +23.4 65 +41 +50 опасность
перегрева
1012.7 1013.0
12 24.03 С 3
{6}
20 км 9/4 700 м
[Cu Sc Ci]
+30.3 +23.7 68 +41 +46 опасность
перегрева
1010.9 1011.0
15 24.03 С 3
{5}
20 км н/о +28.7 +23.1 72 +39 +39 очень
душно
1011.2 1011.0
18 24.03 С 2
{2}
20 км н/о +26.7 +23.8 84 +37 +37 очень
душно
1013.4 1013.0 +31.7
21 24.03 СЗ 1
{2}
20 км н/о +25.9 +23.6 87 +35 +35 очень
душно
1013.3 1013.0
00 25.03 С 1
{2}
20 км н/о +25.3 +23.0 87 +34 +34 очень
душно
1011.4 1011.0
03 25.03 С 2
{3}
20 км 4/1 660 м
[Cu Sc Ci sp]
+24.9 +23.0 89 +33 +33 очень
душно
1011.7 1012.0
06 25.03 СЗ 2 20 км 5/1 720 м
[Cu Sc Ac trans Ci]
+30.5 +23.9 68 +42 +49 опасность
перегрева
1013.8 1014.0 +24.9
09 25.03 СВ 2
{5}
20 км 5/3 600 м
[Cb calv Ci sp]
+31.5 +23.9 64 +43 +57 опасность
перегрева
1012.8 1013.0
12 25.03 Ю 2
{4}
20 км 9/3 900 м
[Cu Sc Ci sp]
+30.6 +23.3 65 +41 +47 опасность
перегрева
1009.6 1010.0
15 25.03 СВ 2
{4}
20 км 8/3 700 м
[Cu Sc Cs]
+28.3 +23.4 75 +38 +38 очень
душно
1010.1 1010.0
18 25.03 ЮЗ 3
{5}
20 км н/о +28.2 +24.0 78 +39 +39 очень
душно
1012.8 1013.0 +31.8
21 25.03 С 2
{4}
20 км н/о +27.1 +23.3 80 +37 +37 очень
душно
1012.3 1012.0

 

Местоположение метеостанции Dzaoudzi (Коморские Острова): широта -12.80 долгота 45.28 высота над уровнем моря 7 м.

В архиве по умолчанию представлена погода в Dzaoudzi за последнюю неделю. Архивные данные за месяц целиком и за предыдущие месяцы, начиная с января 2011 года, Вы можете получить, выбрав интересующий диапазон дат из раскрывающегося списка и нажав кнопку "Ввод!".

Внимание! Время в таблицах - всемирное. Для получения местного времени необходимо прибавить поправку, которая в Dzaoudzi равна 3 ч.

Смотрите также архив погоды в соседних городах и на ближайших метеорологических станциях:

Погода в Iles Glorieuses (Реюньон) (254 км)
Погода в Moroni (Коморские Острова) (260 км)
Погода в Fascene (Мадагаскар) (334 км)
Погода в Mahajanga (Мадагаскар) (338 км)
Погода в Antsohihy (Мадагаскар) (372 км)
Погода в Antsiranana (Мадагаскар) (439 км)
Погода в Besalampy (Мадагаскар) (448 км)
Погода в Pemba (Мадагаскар) (515 км)
Погода в Ile Juan De Nova (Реюньон) (543 км)
Погода в Sambava (Мадагаскар) (554 км)

Пояснения к столбцам:

Ветер - указаны скорость ветра в м/с - средняя за 10 мин, порывы в срок и между сроками (в фигурных скобках) и направление, откуда дует ветер: С - северный, СВ - северо-восточный, В - восточный, ЮВ - юго-восточный, Ю - южный, ЮЗ - юго-западный, З - западный, СЗ - северо-западный.
Видимость - горизонтальная дальность видимости в метрах или километрах. При видимости от 1 до 10 км при отсутствии осадков обычно наблюдается дымка, при ухудшении видимости до 1 км и менее - туман. В сухую погоду видимость может ухудшаться дымом, пылью или мглою.
Явления - указаны атмосферные явления, наблюдавшиеся в срок или в последний час перед сроком; фигурными скобками обозначены явления, наблюдавшиеся между сроками (за 1-3 часа до срока); квадратными скобками обозначены град или гололедные отложения с указанием их диаметра в мм.
Облачность - указаны через наклонную черту общая и нижняя облачность в баллах и высота нижней границы облаков в метрах; квадратными скобками обозначены формы облаков: Ci - перистые, Cs - перисто-слоистые, Cc - перисто-кучевые, Ac - высококучевые, As - высокослоистые, Sc - слоисто-кучевые, Ns - слоисто-дождевые, Cu - кучевые, Cb - кучево-дождевые. Подробнее классификацию облаков см. в Атласе облаков (PDF).
T - Температура воздуха - температура, измеренная на высоте 2 м над землей.
Td - Температура точки росы - температура, при понижении до которой содержащийся в воздухе водяной пар достигнет насыщения.
f - Относительная влажность воздуха - влажноcть воздуха, измеренная на высоте 2 м над землей.
Te - Эффективная температура - температура, которую ощущает одетый по сезону человек в тени. Характеристика душности погоды. При расчете учитывается влияние влажности воздуха и скорости ветра на теплоощущения человека.
Tes - Эффективная температура на солнце - температура, которую ощущает человек, с поправкой на солнечный нагрев. Характеристика знойности погоды. Зависит от высоты солнца над горизонтом, облачности и скорости ветра. Ночью, в пасмурную погоду, а также при ветре 12 м/с и более поправка равна нулю.
P - Атмосферное давление - приведенное к уровню моря атмосферное давление.
Po - Атмосферное давление - измеренное на уровне метеостанции атмосферное давление.
Tmin - Минимальная температура - минимум температуры воздуха на высоте 2 м над землей.
Tmax - Максимальная температура - максимум температуры воздуха на высоте 2 м над землей.
R - Количество осадков - Количество выпавших осадков, мм. При наведении курсора мыши на число - период времени, за который выпало указанное количество осадков.
S - Снежный покров - Высота снежного покрова, см. При наведении курсора мыши на число - состояние снежного покрова и степень покрытия местности в баллах.